Tracking 19489 objects as of 22-Jan-2019
HD Live streaming from Space Station
objects crossing your sky now

FENGYUN 1C DEB

Track FENGYUN 1C DEB now!
10-day predictions


NORAD ID: 30327
Int'l Code: 1999-025AAN
Perigee: 791.6 km
Apogee: 1,000.3 km
Inclination: 98.4 °
Period: 102.8 minutes
Semi major axis: 7266 km
RCS: 0.0095 m2 (small)
Launch date: May 10, 1999
Source: People's Republic of China (PRC)
Launch site: Taiyaun Space Center, China (TSC)

Note: This is SATELLITE DEBRIS
aabbcc
Your satellite tracking list
Your tracking list is empty




NASA's NSSDC Master Catalog

Two Line Element Set (TLE):
1 30327U 99025AAN 19020.07388880 +.00000427 +00000-0 +28147-3 0  9992
2 30327 098.4152 054.2809 0143597 093.3730 296.9951 14.01454805610479
Source of the keplerian elements: AFSPC